Location: Pittsburgh
(40.4410°N, 79.9960°W)
Time: 02:57:10
(UTC-04:00)

ARIANE 6 FM1 Upper Stage - Visible Passes

Search period start: 12 March 2026 00:00
Search period end: 22 March 2026 00:00
Orbit: 523 x 607 km, 62.0° (Epoch: 11 March)

Date Brightness Start Highest point End Pass type
(mag) Time Alt. Az. Time Alt. Az. Time Alt. Az.
12 Mar 4.0 05:09:59 38° E 05:09:59 38° E 05:12:58 10° NE visible
12 Mar 4.1 06:46:01 14° W 06:48:15 21° NW 06:51:22 10° N visible
13 Mar 3.9 05:10:10 40° NE 05:10:10 40° NE 05:12:52 10° NE visible
13 Mar 4.5 06:46:10 12° WNW 06:48:13 16° NW 06:50:44 10° N visible
14 Mar 4.0 05:10:14 35° NNE 05:10:14 35° NNE 05:12:39 10° NE visible
14 Mar 4.8 06:46:36 10° WNW 06:48:13 12° NW 06:49:48 10° NNW visible
15 Mar 4.2 05:10:12 29° NNE 05:10:12 29° NNE 05:12:21 10° NNE visible
16 Mar 4.5 05:10:06 23° N 05:10:06 23° N 05:11:58 10° NNE visible
17 Mar 4.7 05:09:56 19° N 05:09:56 19° N 05:11:29 10° NNE visible
18 Mar 5.0 05:09:43 15° N 05:09:43 15° N 05:10:55 10° N visible
19 Mar 5.2 05:09:27 12° NNW 05:09:27 12° NNW 05:10:10 10° N visible
